Omaha, NE

4:34 PM CDT on March 30, 2017 (GMT -0500)
Eppley Airfield

Weather History for KOMA - July, 2013

Change the Weather History Date:

Monday, July 29, 2013

  Actual Average Record
Temperature  
Mean Temperature 62 °F 76 °F  
Max Temperature 69 °F 87 °F 104 °F (1917)
Min Temperature 55 °F 66 °F 50 °F (1971)
Degree Days  
Heating Degree Days 3 0  
Month to date heating degree days 5 0  
Since 1 June heating degree days 21 17  
Since 1 July heating degree days 5 0  
Cooling Degree Days 0 12  
Month to date cooling degree days 347 344  
Year to date cooling degree days 678 656  
Since 1 June cooling degree days 582 574  
Growing Degree Days 12 (Base 50)    
Moisture  
Dew Point 56 °F    
Average Humidity 77    
Maximum Humidity 93    
Minimum Humidity 60    
Precipitation  
Precipitation 0.05 in 0.13 in 4.35 in (1871)
Month to date precipitation 0.43 3.58  
Year to date precipitation 19.51 19.04  
Snow  
Snow 0.00 in 0.00 in - ()
Month to date snowfall 0.0 0.0  
Since 1 July snowfall 0.0 0.0  
Snow Depth 0.00 in    
Sea Level Pressure  
Sea Level Pressure 30.05 in    
Wind  
Wind Speed 8 mph (SE)    
Max Wind Speed 20 mph    
Max Gust Speed 23 mph    
Visibility 9 miles    
Events Rain    
T = Trace of Precipitation, MM = Missing Value Source: NWS Daily Summary

Daily Weather History Graph

Daily Weather History Graph

Search for Another Location

Airport or City:

Trip Planner

Search our weather history database for the weather conditions in past years. The results will help you decide how hot, cold, wet, or windy it might be!

Date:

Astronomy

Jul. 29, 2013 Rise Set
Actual Time 6:16 AM CDT 8:43 PM CDT
Civil Twilight 5:44 AM CDT 9:14 PM CDT
Nautical Twilight 5:05 AM CDT 9:53 PM CDT
Astronomical Twilight 4:22 AM CDT 10:36 PM CDT
Moon 12:01 AM CDT (7/29) 2:04 PM CDT (7/29)
Length of Visible Light 15h 29m
Length of Day
14h 27m
Waning Gibbous, 50% of the Moon is Illuminated
Jul 29
Waning Gibbous
Jul 29
Last Quarter
Aug 6
New
Aug 14
First Quarter
Aug 20
Full

Hourly Weather History & Observations

Time (CDT) Temp. Dew Point Humidity Pressure Visibility Wind Dir Wind Speed Gust Speed Precip Events Conditions
12:52 AM 61.0 °F 50.0 °F 67% 30.06 in 10.0 mi Calm Calm - N/A   Partly Cloudy
1:52 AM 57.9 °F 52.0 °F 81% 30.05 in 10.0 mi Calm Calm - N/A   Partly Cloudy
2:52 AM 63.0 °F 48.0 °F 58% 30.05 in 10.0 mi ESE 3.5 mph - N/A   Scattered Clouds
3:52 AM 57.0 °F 51.1 °F 81% 30.06 in 10.0 mi Calm Calm - N/A   Scattered Clouds
4:52 AM 61.0 °F 48.0 °F 62% 30.04 in 10.0 mi ESE 6.9 mph - N/A   Mostly Cloudy
5:52 AM 61.0 °F 48.0 °F 62% 30.05 in 10.0 mi SE 6.9 mph - N/A   Mostly Cloudy
6:52 AM 62.1 °F 48.0 °F 60% 30.05 in 10.0 mi SSE 6.9 mph - N/A   Mostly Cloudy
7:52 AM 63.0 °F 48.9 °F 60% 30.06 in 10.0 mi SSE 8.1 mph - N/A   Overcast
8:52 AM 62.1 °F 54.0 °F 75% 30.07 in 10.0 mi SSE 8.1 mph - 0.00 in Rain Light Rain
9:52 AM 62.1 °F 55.9 °F 80% 30.07 in 10.0 mi SE 6.9 mph - 0.01 in Rain Light Rain
10:52 AM 63.0 °F 55.9 °F 78% 30.07 in 10.0 mi SE 8.1 mph - 0.01 in Rain Light Rain
11:52 AM 63.0 °F 57.0 °F 81% 30.07 in 10.0 mi SE 10.4 mph - 0.01 in Rain Light Rain
12:31 PM 64.4 °F 57.2 °F 77% 30.07 in 10.0 mi SE 9.2 mph - 0.01 in Rain Light Rain
12:52 PM 64.0 °F 57.9 °F 80% 30.06 in 10.0 mi SE 12.7 mph - 0.01 in   Overcast
1:52 PM 66.0 °F 59.0 °F 78% 30.06 in 10.0 mi SE 12.7 mph - N/A   Overcast
2:52 PM 66.9 °F 59.0 °F 76% 30.04 in 10.0 mi SE 15.0 mph - N/A   Overcast
3:52 PM 66.9 °F 60.1 °F 79% 30.05 in 10.0 mi ESE 6.9 mph - N/A   Overcast
4:52 PM 69.1 °F 61.0 °F 75% 30.03 in 10.0 mi ESE 9.2 mph - N/A   Overcast
5:52 PM 69.1 °F 61.0 °F 75% 30.03 in 10.0 mi SE 11.5 mph - N/A   Overcast
6:52 PM 68.0 °F 61.0 °F 78% 30.01 in 10.0 mi SE 10.4 mph - N/A   Overcast
7:52 PM 68.0 °F 62.1 °F 81% 30.01 in 10.0 mi SE 9.2 mph - N/A   Overcast
8:35 PM 66.2 °F 62.6 °F 88% 30.04 in 5.0 mi SE 6.9 mph - N/A   Overcast
8:52 PM 66.0 °F 63.0 °F 90% 30.03 in 4.0 mi SE 9.2 mph - 0.00 in   Light Drizzle
9:31 PM 66.2 °F 62.6 °F 88% 30.05 in 5.0 mi ESE 6.9 mph - 0.00 in   Light Drizzle
9:52 PM 66.0 °F 63.0 °F 90% 30.05 in 6.0 mi ESE 5.8 mph - 0.00 in   Overcast
10:52 PM 64.9 °F 63.0 °F 93% 30.05 in 4.0 mi ESE 4.6 mph - 0.00 in   Light Drizzle
11:52 PM 64.9 °F 63.0 °F 93% 30.05 in 3.0 mi ESE 4.6 mph - 0.00 in   Light Drizzle